SCP
0 0 0 0 0 0 0 0 0 0 0 0 0 0 0 0 0 0 0 0 0 0 0 0 0 0 0 0 0 0 0 0 0 0 0 0 0 0 0 0 0 0 0 0
0 0 0 0 0 0 0 0 0 0 0 0 0 0 0 0 0 0 0 0 0 0 0 0 0 0 0 0 0 0 0 0 0 0 0 0 0 0 0 0 0 0 0 0
0 0 0 0 0 0 0 0 0 0 0 0 0 0 0 0 0 0 0 0 0 0 0 0 0 0 0 0 0 0 0 0 0 0 0 0 0 0 0 0 0 0 0 0
0 0 0 0 0 0 0 0 0 0 0 0 0 0 0 0 0 0 0 0 0 0 0 0 0 0 0 0 0 0 0 0 0 0 0 0 0 0 0 0 0 0 0 0
0 0 0 0 0 0 0 0 0 0 0 0 0 0 0 0 0 0 0 0 0 0 0 0 0 0 0 0 0 0 0 0 0 0 0 0 0 0 0 0 0 0 0 0
0 0 0 0 0 0 0 0 0 0 0 0 0 0 0 0 0 0 0 0 0 0 0 0 0 0 0 0 0 0 0 0 0 0 0 0 0 0 0 0 0 0 0 0
0 0 0 0 0 0 0 0 0 0 0 0 0 0 0 0 0 0 0 0 0 0 0 0 0 0 0 0 0 0 0 0 0 0 0 0 0 0 0 0 0 0 0 0
0 0 0 0 0 0 0 0 0 0 0 0 0 0 0 0 0 0 0 0 0 0 0 0 0 0 0 0 0 0 0 0 0 0 0 0 0 0 0 0 0 0 0 0
0 0 0 0 0 0 0 0 0 0 0 0 0 0 0 0 0 0 0 0 0 0 0 0 0 0 0 0 0 0 0 0 0 0 0 0 0 0 0 0 0 0 0 0
0 0 0 0 0 0 0 0 0 0 0 0 0 0 0 0 0 0 0 0 0 0 0 0 0 0 0 0 0 0 0 0 0 0 0 0 0 0 0 0 0 0 0 0
0 0 0 0 0 0 0 0 0 0 0 0 0 0 0 0 0 0 0 0 0 0 0 0 0 0 0 0 0 0 0 0 0 0 1 0 0 0 0 0 0 0 0 0
0 0 0 0 0 0 0 0 0 0 0 0 0 0 0 0 0 0 0 0 0 0 0 0 0 0 0 0 0 0 0 0 0 0 1 0 0 0 0 0 0 0 0 0
0 0 0 0 0 0 0 0 0 0 0 0 0 0 0 0 0 0 0 0 0 0 0 0 0 0 0 0 0 0 0 0 0 0 1 0 0 0 0 0 0 0 0 0
0 0 0 0 0 0 0 0 0 0 0 0 0 0 0 0 0 0 0 0 0 0 0 0 0 0 0 0 0 0 0 0 0 0 0 0 0 0 0 0 0 0 0 0
0 0 0 0 0 0 0 0 0 0 0 0 0 0 0 0 0 0 0 0 0 0 0 0 0 0 0 0 0 0 0 0 0 0 0 0 0 0 0 0 0 0 0 0
0 0 0 0 0 0 0 0 0 0 0 0 0 0 0 0 0 0 0 0 0 0 0 0 0 0 0 0 0 0 0 0 0 0 0 0 0 0 0 0 0 0 0 0
0 0 0 0 0 0 0 0 0 0 0 0 0 0 0 0 0 0 0 0 0 0 0 0 0 0 0 0 0 0 0 0 0 0 0 0 0 0 0 0 0 0 0 0
0 0 0 0 0 0 0 0 0 0 0 0 0 0 0 0 0 0 0 0 0 0 0 0 0 0 0 0 0 0 0 0 0 0 0 0 0 0 0 0 0 0 0 0
0 0 0 0 0 0 0 0 0 0 0 0 0 0 0 0 0 0 0 0 0 0 0 0 0 0 0 0 0 0 0 0 0 0 0 0 0 0 0 0 0 0 0 0
0 0 0 0 0 0 0 0 0 0 0 0 0 0 0 0 0 0 0 0 0 0 0 0 0 0 0 0 0 0 0 0 0 0 0 0 0 0 0 0 0 0 0 0
0 0 0 0 0 0 0 0 0 0 0 0 0 0 0 0 0 0 0 0 0 0 0 0 0 0 0 0 0 0 0 0 0 0 0 0 0 0 0 0 0 0 0 0
0 0 0 0 0 0 0 0 0 0 0 0 0 0 0 0 0 0 0 0 0 0 0 0 0 0 0 0 0 0 0 0 0 0 0 0 0 0 0 0 0 0 0 0
0 0 0 0 0 0 0 0 0 0 0 0 0 0 0 0 0 0 0 0 0 0 0 0 0 0 0 0 0 0 0 0 0 0 0 0 0 0 0 0 0 0 0 0
0 0 0 0 0 0 0 0 0 0 0 0 0 0 0 0 0 0 0 0 0 0 0 0 0 0 0 0 0 0 0 0 0 0 0 0 0 0 0 0 0 0 0 0
0 0 0 0 0 0 0 0 0 0 0 0 0 0 0 0 0 0 0 0 0 0 0 0 0 0 0 0 0 0 0 0 0 0 0 0 0 0 0 0 0 0 0 0
0 0 0 0 0 0 0 0 0 0 0 0 0 0 0 0 0 0 0 0 0 0 0 0 0 0 0 0 0 0 0 0 0 0 0 0 0 0 0 0 0 0 0 0
Wind_Speed
1 2 3 6 6 2 2 3 5 5 3 3 7 12 13 8 6 8 7 7 7 8 5 3 4 4 4 4 5 6 7 6 5 4 4 4 4 3 3 3 3 3 3 3
2 4 5 2 3 3 3 4 5 5 2 3 6 11 9 7 7 7 7 7 6 5 2 2 2 3 4 5 5 6 7 7 7 6 4 3 3 3 3 2 3 3 4 4
5 3 2 3 2 3 4 5 5 4 5 3 5 9 5 4 3 4 4 5 4 5 5 3 3 3 3 4 5 5 6 7 7 5 3 3 2 2 2 2 3 4 4 4
3 2 1 2 3 4 5 4 4 3 2 4 1 7 7 4 5 4 4 2 3 3 3 2 2 2 3 4 4 4 5 5 6 6 6 6 5 5 5 4 4 3 4 4
3 1 1 3 4 4 4 1 2 2 2 3 2 4 10 2 5 5 4 3 2 2 2 2 2 3 3 2 2 3 4 4 5 6 7 7 5 4 2 2 4 4 4 4
3 1 2 2 1 3 2 2 2 2 2 4 4 5 9 4 6 4 3 2 2 1 1 1 0 1 1 1 1 1 3 4 4 6 6 7 7 5 4 3 4 4 3 4
2 1 1 1 1 1 2 3 3 4 2 7 2 5 11 6 4 4 4 3 2 1 1 1 1 1 1 1 2 2 3 3 4 5 6 6 6 6 6 5 5 4 4 4
1 4 3 2 3 3 3 4 5 4 4 5 2 8 9 4 2 2 2 2 1 1 1 1 1 1 1 2 2 3 3 4 4 5 5 5 5 4 4 5 4 5 5 5
5 4 1 1 1 4 3 3 3 3 0 4 7 7 9 1 1 1 0 1 2 2 2 2 2 1 1 1 2 3 4 3 4 5 5 4 4 4 4 4 3 3 3 3
4 3 2 1 1 1 2 4 3 4 3 5 7 6 6 3 3 1 1 2 3 3 2 2 2 2 2 2 2 1 2 3 3 3 4 3 4 4 4 3 4 4 3 3
2 3 2 0 4 5 3 3 3 3 3 4 5 7 5 4 3 2 3 3 3 3 3 3 2 2 2 1 0 1 1 1 2 3 3 3 3 3 3 3 4 4 3 4
3 3 3 5 3 2 3 5 6 4 5 4 4 9 2 2 2 1 2 3 3 3 2 2 2 2 2 2 1 1 1 1 1 2 2 3 2 2 3 3 3 3 3 4
4 4 1 4 2 0 3 4 4 2 2 4 5 10 2 2 2 2 2 3 3 3 3 3 3 2 2 2 2 2 2 1 1 1 1 1 2 2 3 3 2 2 3 3
3 4 7 9 6 4 5 5 5 5 5 7 10 11 9 5 5 4 3 2 2 2 2 3 3 3 3 2 2 2 2 2 1 0 1 1 2 2 2 2 2 2 2 2
3 4 5 6 4 3 7 8 8 11 11 10 10 10 13 7 5 4 3 2 2 3 3 3 3 3 3 3 3 2 2 1 1 0 0 1 1 1 1 1 1 1 1 2
3 3 2 5 5 5 8 9 10 12 10 11 11 14 10 5 2 2 3 2 3 3 3 3 3 3 3 3 3 3 2 1 1 0 1 1 1 1 1 1 0 0 1 1
4 4 3 5 3 3 10 11 12 9 9 9 13 12 5 4 3 4 3 3 4 4 3 3 3 3 3 3 3 3 2 1 0 0 1 1 1 1 1 1 0 1 1 1
6 4 3 2 1 10 9 3 7 8 8 8 7 6 5 5 3 2 2 3 3 3 3 3 3 3 3 2 2 2 1 0 0 1 1 1 1 2 1 1 1 1 1 1
7 7 4 3 5 10 8 3 4 6 8 7 10 9 6 1 2 3 2 2 3 3 2 2 2 2 2 2 3 2 1 1 1 1 2 2 1 2 1 1 2 1 1 1
3 5 5 5 6 10 7 3 2 2 7 4 6 7 5 1 3 5 2 1 2 2 1 1 1 2 2 2 2 1 2 2 2 2 2 2 1 1 2 2 2 2 1 2
5 5 8 7 8 11 6 2 3 5 7 2 4 4 4 5 5 3 1 2 1 1 1 1 1 1 1 2 2 1 2 2 3 2 2 2 2 2 2 2 1 1 1 1
10 8 8 6 8 12 3 4 7 7 2 1 2 2 3 4 3 2 2 1 1 2 2 1 1 2 2 1 1 1 2 3 3 2 1 2 2 2 1 1 1 1 1 1
9 9 7 10 9 3 4 5 4 2 2 2 2 2 2 2 3 3 2 2 1 1 1 1 1 1 2 2 1 1 3 3 2 2 2 2 2 2 2 1 1 1 0 1
5 3 4 6 7 5 4 4 3 3 3 3 3 2 2 3 3 2 2 2 1 1 1 1 1 1 2 2 2 2 2 2 2 2 2 2 1 2 2 1 1 1 1 1
6 5 5 7 6 3 4 5 5 4 3 3 3 2 2 3 3 2 2 2 2 2 2 1 2 2 3 3 2 2 1 1 2 2 2 2 1 1 2 2 2 2 2 3
6 7 8 9 6 6 7 5 4 4 4 4 3 3 2 2 3 3 3 2 2 2 2 2 2 3 3 3 3 2 1 1 1 2 2 2 1 1 1 2 2 3 3 4
Wind_Direction
67 95 212 216 207 220 206 230 262 267 267 246 253 267 276 274 251 252 249 242 238 240 241 209 196 192 186 182 182 186 183 178 166 166 172 179 194 191 190 189 184 182 180 179
68 239 236 208 200 223 230 257 268 288 292 249 278 277 271 258 244 238 238 237 237 244 251 224 196 187 190 194 194 192 192 184 182 184 180 174 167 180 187 188 189 190 187 187
204 238 204 173 191 216 235 225 244 268 318 313 315 297 278 270 265 269 252 238 233 224 229 224 205 203 202 205 204 200 197 190 188 175 153 128 110 107 163 195 204 204 197 193
245 275 175 185 214 195 250 230 224 250 301 295 350 293 282 265 286 274 271 264 252 245 232 217 201 210 220 221 211 204 192 185 182 172 173 172 181 194 201 197 202 201 199 199
249 239 192 215 225 190 223 208 199 224 222 288 248 252 283 278 269 266 259 255 263 258 228 220 210 214 222 217 205 203 184 180 178 180 184 185 196 201 184 178 189 198 203 204
246 235 212 217 247 193 175 64 56 53 72 273 230 210 276 237 235 257 261 253 257 276 276 269 264 198 213 188 183 187 183 188 182 180 183 190 197 190 182 190 197 202 207 209
310 272 232 164 99 18 150 102 20 350 340 255 220 222 254 252 246 234 242 260 273 268 280 307 348 348 279 219 203 190 186 199 195 188 190 197 199 195 200 202 205 203 206 212
223 274 221 199 184 186 202 164 170 215 245 280 262 237 255 261 267 254 235 255 287 292 271 259 247 239 242 233 212 198 199 205 199 199 204 203 198 197 206 206 206 209 213 216
190 249 321 224 230 155 161 203 180 146 292 281 267 276 294 283 277 304 315 331 301 294 282 271 273 266 257 242 226 209 202 205 207 207 205 204 203 206 212 207 201 207 211 210
171 236 279 304 80 353 172 152 128 159 196 264 278 262 257 268 253 278 297 283 283 299 309 305 297 283 265 246 238 226 211 212 213 207 206 206 206 211 212 201 205 211 212 208
167 184 285 298 202 195 155 165 168 164 178 195 267 267 236 228 217 225 258 273 283 291 295 300 303 302 300 313 304 249 233 227 217 205 206 205 205 203 200 207 215 217 215 209
174 152 237 247 246 216 194 193 169 182 228 215 243 266 265 229 232 234 274 302 316 315 316 323 327 340 347 345 339 312 279 253 250 224 203 208 207 193 199 218 224 219 222 220
155 141 33 330 324 270 231 215 199 184 169 197 218 261 318 356 337 316 305 315 325 337 343 349 359 354 342 340 341 336 328 298 290 244 195 206 209 202 213 225 227 223 224 226
149 170 193 215 230 201 236 237 204 187 210 230 232 258 285 300 305 310 306 302 320 327 328 339 346 342 337 336 332 334 330 330 333 8 154 220 235 226 227 226 225 227 224 226
144 211 230 251 259 233 243 243 221 218 222 229 248 251 264 262 255 263 269 287 310 317 323 322 322 325 331 339 338 337 324 328 332 44 36 282 275 246 237 236 238 240 238 244
160 200 224 272 266 257 261 248 232 233 234 240 258 266 263 265 255 271 274 270 279 293 301 307 312 316 314 320 325 331 319 322 357 40 326 330 338 322 291 279 283 292 282 281
179 163 191 261 290 321 265 228 215 218 215 211 234 251 278 281 264 258 262 256 258 279 294 300 300 297 300 305 311 308 305 320 350 333 342 346 338 332 314 313 332 292 283 302
175 177 193 215 133 242 246 203 204 220 238 222 240 261 260 255 266 259 249 242 260 280 292 300 307 314 316 324 328 321 330 344 336 339 340 343 337 321 325 325 282 284 284 272
188 176 180 185 229 267 283 244 187 208 255 225 235 258 268 270 333 297 279 229 248 271 283 292 309 320 329 334 330 333 3 14 10 331 320 319 320 321 320 303 285 280 284 284
178 177 183 192 219 243 252 236 217 171 265 241 223 244 255 169 267 272 297 314 302 314 321 323 347 358 352 343 346 11 2 359 321 301 301 304 308 302 289 280 284 291 281 281
170 193 209 213 234 255 253 229 126 188 253 252 213 223 208 211 233 258 308 328 328 323 326 344 4 5 344 349 358 5 355 319 309 318 323 324 319 300 294 295 301 307 300 301
183 188 201 193 224 248 214 142 188 228 281 251 221 213 214 238 267 280 280 287 323 334 340 354 2 350 359 9 8 344 320 315 333 334 334 325 322 320 325 318 312 307 281 287
202 198 191 200 221 250 170 198 232 256 244 255 235 234 218 241 263 269 275 272 295 309 312 326 338 335 344 354 5 303 311 331 335 333 322 319 327 332 333 313 295 291 272 264
237 220 197 235 249 246 238 254 264 250 246 263 251 234 228 242 254 265 269 277 282 289 288 303 312 299 307 323 331 299 313 329 318 303 305 313 318 326 334 324 296 261 249 258
209 189 208 239 254 260 247 241 252 261 264 274 275 253 226 226 247 253 259 265 267 275 276 265 261 268 284 305 309 306 314 316 299 285 292 298 295 296 305 304 283 269 249 244
195 190 200 229 224 221 244 241 231 232 245 247 254 271 266 227 243 255 255 262 273 279 277 270 272 272 281 290 293 295 294 273 263 276 280 275 278 283 289 303 315 306 289 296